User: anonymous   Login
Location: Unspecified
(0.0000°N, 0.0000°E)
Time: 11:19:17
(UTC+00:00)
Language:

S-56A Canister/Altair - Orbit

View from above orbital plane
View from above orbital plane
View from above satellite
View from above satellite

Ground track
Ground track

The orbit data is extracted from the following two-line orbital elements,

1    82U 61004B   21023.22037329 -.00000108  00000-0 -35965-4 0  9990
2    82  38.8561 104.6183 1174800  64.2579 307.4602 12.26048883834784
Epoch (UTC): 23 January 2021 05:17:20
Eccentricity: 0.1174800
inclination: 38.8561°
perigee height: 633 km
apogee height: 2499 km
right ascension of ascending node: 104.6183°
argument of perigee: 64.2579°
revolutions per day: 12.26048883
mean anomaly at epoch: 307.4602°
orbit number at epoch: 83478

The dashed part of the orbit path shows where the satellite is in the earth's shadow,  

DLR